Вернуться в каталог

EUTE 117W B

АктивенСвязьGEO
NORAD 41589·PAYLOAD·🇪🇺 EU

Запущен Jun 15, 2016 с Cape Canaveral Space Force Station

Loading…

TLE

СвежийSource: Space-Track

Эпоха: Sep 14, 2026, 12:29 UTC

1 41589U 16038B   26257.52058617 -.00000020  00000-0  00000-0 0  9994
2 41589   0.0220 319.1931 0000178 271.6774 193.0450  1.00271976 37555

Отслеживайте EUTE 117W B в реальном времени с AllMySat

Download on the App Store